Torna al catalogo

STARLINK-11543

AttivoComunicazioniVLEO
NORAD 62981·PAYLOAD·🇺🇸 United States

Lanciato Feb 11, 2025 da Cape Canaveral Space Force Station

Loading…

Prossimi Passaggi (prossime 24 ore)

TLE

AggiornatoSource: CelesTrak SupGP

Epoca: Sep 15, 2026, 03:07 UTC

1 62981C 25031A   26258.13034722  .00071657  00000+0  55665-3 0  2585
2 62981  43.0000 299.2272 0001478 260.8617 342.2708 15.70799396    11

Traccia STARLINK-11543 in tempo reale con AllMySat

Download on the App Store